www.pogodaiklimat.ru

АРХИВ ПОГОДЫ в Вашингтоне

Время (UTC), дата Ветер
(напр.,м/с)
 
Видим.   Явления Облачность Т
(С)
Тd
(С)
f
(%)
Тe
(С)
Тes
(С)
Комфортность

P
(гПа)

Po
(гПа)
Тmin
(С)
Tmax
(С)
R
(мм)
SD
(см)
16:52 24.03 Ю  16 км    8/0 4500 м
[средняя] 
+16.7  -3.9  24  +16  +18    1022.7  1022.1  +3.3  +17.2     
17:52 24.03 Ю  16 км    8/0 4500 м
[средняя] 
+16.1  -4.4  24  +15  +17    1020.9  1020.4         
18:52 24.03 Ю  5
{8} 
16 км    8/0 4500 м
[средняя верхняя] 
+16.7  -4.4  23  +16  +18    1019.5  1019.0         
19:52 24.03 ЮЗ  16 км    8/0 4800 м
[средняя верхняя] 
+18.9  -6.1  18  +18  +19    1019.2  1018.7         
20:52 24.03 Ю  16 км    10/0 4500 м
[средняя верхняя] 
+18.3  -5.6  19  +18  +19    1018.9  1018.4         
21:52 24.03 Ю  16 км    10/0 4800 м
[средняя верхняя] 
+16.1  -2.2  28  +16  +16    1018.5  1018.0         
22:52 24.03 Ю  16 км    10/0 5100 м
[средняя верхняя] 
+16.7  -4.4  23  +17  +17    1018.5  1018.0  +15.0  +18.9     
23:52 24.03 Ю  16 км    10/0 5100 м
[средняя верхняя] 
+13.9  +0.6  40  +14  +14    1018.4  1017.7         
00:52 25.03   16 км    10/0 5100 м
[средняя верхняя] 
+13.9  0.0  38  +14  +14    1018.9  1018.4         
01:52 25.03 Ю  16 км    10/0 4500 м
[средняя] 
+13.9  0.0  38  +14  +14    1018.5  1018.0         
02:52 25.03 ЮВ  16 км    10/0 3600 м
[средняя] 
+12.2  +1.1  47  +12  +12    1018.1  1017.7         
03:52 25.03 С  16 км    10/0 4500 м
[средняя] 
+11.7  +1.7  50  +11  +11    1018.0  1017.3         
04:52 25.03 СВ  16 км    10/0 3600 м
[средняя] 
+10.6  +2.8  58  +8  +8    1017.6  1017.0  +10.0  +16.7     
05:52 25.03 СВ  16 км    10/0 3600 м
[средняя] 
+10.6  +2.8  58  +10  +10    1017.5  1017.0         
06:52 25.03 СВ  16 км    10/0 3000 м
[средняя] 
+10.6  +3.3  61  +9  +9    1017.0  1016.3         
07:52 25.03 СВ  16 км    10/0 3000 м
[средняя] 
+10.0  +3.9  66  +8  +8    1016.9  1016.3         
08:52 25.03   16 км    8/0 3600 м
[средняя верхняя] 
+10.0  +2.8  61  +10  +10    1016.7  1016.3         
09:52 25.03   16 км    8/0 3600 м
[средняя верхняя] 
+9.4  +3.3  66  +9  +9    1016.6  1016.0         
10:52 25.03 СВ  16 км    5/0 3600 м
[средняя верхняя] 
+9.4  +3.9  68  +8  +8    1017.3  1016.7  +8.9  +10.6     
11:52 25.03 СВ  16 км    5/0 3600 м
[средняя верхняя] 
+11.7  +3.3  56  +11  +12    1017.3  1016.7         
12:52 25.03 С  16 км    5/0 3600 м
[средняя верхняя] 
+15.0  +2.8  44  +15  +18    1017.1  1016.7         
13:52 25.03 СВ  16 км    8/0 3600 м
[средняя верхняя] 
+16.7  +2.2  38  +17  +20    1016.7  1016.3         
14:52 25.03 СВ  16 км    10/0 3300 м
[средняя верхняя] 
+17.2  +1.7  35  +18  +22    1016.7  1016.0         
15:52 25.03 С  16 км    10/0 3000 м
[средняя верхняя] 
+17.8  +1.7  34  +18  +23    1016.6  1016.0         
16:52 25.03 СВ  16 км    10/0 2400 м
[средняя верхняя] 
+17.2  +3.3  39  +17  +21    1016.1  1015.3  +9.4  +18.3     
17:52 25.03 СВ  16 км    10/0 2550 м
[средняя] 
+16.7  +3.3  41  +15  +16    1015.3  1014.6         
18:34 25.03 В  16 км  слабый дождь  10/8 1350 м
[средняя] 
+15.0  +3.9  47  +13  +14      1015.3         
18:52 25.03 В  16 км    10/8 1350 м
[средняя] 
+15.6  +3.3  44  +14  +14    1015.4  1014.6         
19:52 25.03 СВ  16 км    10/5 1350 м
[средняя] 
+14.4  +3.3  47  +12  +12    1014.6  1014.0         
20:52 25.03 С  16 км    10/2 1350 м
[средняя] 
+13.3  +3.9  53  +11  +11    1015.5  1015.0         
21:52 25.03 С  16 км  слабый дождь  10/8 1950 м
[средняя] 
+11.7  +5.6  66  +9  +9    1016.7  1016.0         
22:52 25.03 СВ  16 км    10/8 660 м
[средняя] 
+9.4  +5.0  74  +6  +6    1017.1  1016.7  +9.4  +17.8     
23:34 25.03 С  16 км    10/10 510 м  +8.9  +4.4  73  +5  +5      1017.0         
23:46 25.03 СВ  16 км    10/10 510 м  +9.0  +4.0  71  +5  +5      1017.0         
23:52 25.03 СВ  16 км    10/10 510 м  +8.9  +4.4  73  +5  +5    1017.6  1017.0         
00:12 26.03 СВ  16 км    10/10 510 м  +8.9  +4.4  73  +5  +5      1017.3         
00:29 26.03 СВ  16 км    10/10 510 м  +8.3  +3.9  74  +4  +4      1017.3         
00:52 26.03 СВ  16 км    10/10 510 м  +8.3  +3.9  74  +4  +4    1018.2  1017.7         
01:11 26.03 СВ  16 км    10/10 510 м  +8.3  +3.9  74  +4  +4      1018.0         
01:52 26.03 СВ  16 км    10/10 450 м  +8.3  +3.9  74  +4  +4    1018.7  1018.0         
02:52 26.03 С  16 км    10/10 480 м  +7.8  +3.3  73  +3  +3    1019.0  1018.4         
03:52 26.03 СВ  16 км    10/10 540 м  +7.2  +2.8  74  +2  +2    1019.3  1018.7         
04:07 26.03 СВ  16 км    10/10 540 м  +7.2  +2.8  74  +3  +3      1019.0         
04:16 26.03 С  16 км    10/10 540 м  +7.2  +2.8  74  +3  +3      1019.0         
04:52 26.03 СВ  16 км    10/10 690 м  +6.7  +2.2  73  +2  +2    1019.5  1019.0  +6.7  +9.4     
05:34 26.03 СВ  16 км    10/10 750 м  +7.2  +1.7  68  +3  +3      1019.0         
05:52 26.03 С  16 км    10/10 1020 м  +7.2  +1.1  65  +3  +3    1019.6  1019.0         
06:52 26.03 С  16 км    10/10 1500 м  +6.7  0.0  62  +2  +2    1019.9  1019.4         

 

Местоположение метеостанции Reagan National Airport: широта 38.8483 долгота -77.0342 высота над уровнем моря 4 м.

В архиве по умолчанию представлена погода в Вашингтоне за последние 1-2 суток. Обновление информации о фактической погоде в базе происходит ежечасно! Архивные данные за месяц целиком и за предыдущие месяцы Вы можете получить, выбрав интересующий диапазон дат из раскрывающегося списка и нажав кнопку "Ввод!".

Внимание! Архив погоды МЕТАР в базе сайта в настоящее время начинается c 1 января 2011 г. Нет смысла пытаться выбрать более раннюю дату.

Внимание! Время в таблицах - всемирное. Для получения местного времени необходимо прибавить поправку, которая в Вашингтоне равна -5 ч.

Ветер - указаны скорость ветра в м/с и направление, откуда дует ветер: С - северный, СВ - северо-восточный, В - восточный, ЮВ - юго-восточный, Ю - южный, ЮЗ - юго-западный, З - западный, СЗ - северо-западный.
Видимость - горизонтальная дальность видимости в метрах или километрах. При видимости от 1 до 10 км при отсутствии осадков обычно наблюдается дымка, при ухудшении видимости до 1 км и менее - туман. В сухую погоду видимость может ухудшаться дымом, пылью или мглою.
Атмосферные явления - указаны явления, наблюдавшиеся в указанный момент времени.
Облачность - указаны через наклонную черту верхняя и нижняя облачность в баллах и высота нижней границы облаков в метрах. Внимание: облачность, как и прочие метеорологические величины в США измеряются автоматическими метеостанциями. Указанные значения в баллах носят условный характер и показывают процент времени, в течение которого, в среднем, лазерный луч высотомера отражался от облаков обратно.
T - Температура воздуха - температура, измеренная на высоте 2 м над землей.
Td - Температура точки росы - температура, при понижении до которой содержащийся в воздухе водяной пар достигнет насыщения.
f - Относительная влажность воздуха - влажноcть воздуха, измеренная на высоте 2 м над землей.
Te - Эффективная температура - температура, которую ощущает одетый по сезону человек в тени. Характеристика душности погоды. При расчете учитывается влияние влажности воздуха и скорости ветра на теплоощущения человека.
Tes - Эффективная температура на солнце - температура, которую ощущает человек, с поправкой на солнечный нагрев. Характеристика знойности погоды. Зависит от высоты солнца над горизонтом, облачности и скорости ветра. Ночью, в пасмурную погоду, а также при ветре 12 м/с и более поправка равна нулю.
P - Атмосферное давление - приведенное к уровню моря атмосферное давление.
Po - Атмосферное давление - измеренное на уровне метеостанции атмосферное давление.
Tmin - Минимальная температура - минимум температуры воздуха на высоте 2 м над землей.
Tmax - Максимальная температура - максимум температуры воздуха на высоте 2 м над землей.
R - Количество осадков - Количество выпавших осадков за 3 или 6 часов, мм.
SD - Снежный покров - Высота снежного покрова, см.